Rifle, CO

11:15 AM MDT on July 25, 2017 (GMT -0600)
Garfield County Regional

Weather History for KRIL - April, 2013

Change the Weather History Date:

Saturday, April 20, 2013

  Actual Average Record
Temperature  
Mean Temperature 43 °F 49 °F  
Max Temperature 52 °F 64 °F 90 °F (1936)
Min Temperature 33 °F 34 °F 17 °F (1955)
Degree Days  
Heating Degree Days 22 16  
Month to date heating degree days 463 369  
Since 1 July heating degree days 6277 6153  
Cooling Degree Days 0 0  
Month to date cooling degree days 0 0  
Year to date cooling degree days 0 0  
Moisture  
Dew Point 34 °F    
Average Humidity 78    
Maximum Humidity 96    
Minimum Humidity 60    
Precipitation  
Precipitation 0.08 in 0.03 in 1.01 in (1985)
Month to date precipitation 1.46 0.77  
Year to date precipitation 2.78 3.54  
Sea Level Pressure  
Sea Level Pressure 30.03 in    
Wind  
Wind Speed 5 mph (WNW)    
Max Wind Speed 25 mph    
Max Gust Speed 32 mph    
Visibility 9 miles    
Events Rain , Snow    
T = Trace of Precipitation, MM = Missing Value Source: NWS Daily Summary

Daily Weather History Graph

Daily Weather History Graph

Search for Another Location

Airport or City:

Trip Planner

Search our weather history database for the weather conditions in past years. The results will help you decide how hot, cold, wet, or windy it might be!

Date:

Astronomy

Apr. 20, 2013 Rise Set
Actual Time 6:26 AM MDT 7:54 PM MDT
Civil Twilight 5:57 AM MDT 8:22 PM MDT
Nautical Twilight 5:23 AM MDT 8:56 PM MDT
Astronomical Twilight 4:48 AM MDT 9:32 PM MDT
Moon 2:42 PM MDT (4/20) 3:15 AM MDT (4/20)
Length of Visible Light 14h 24m
Length of Day
13h 28m
Waxing Gibbous, 71% of the Moon is Illuminated
Apr 20
Waxing Gibbous
Apr 25
Full
May 2
Last Quarter
May 9
New
May 17
First Quarter

Hourly Weather History & Observations

Time (MDT) Temp. Windchill Dew Point Humidity Pressure Visibility Wind Dir Wind Speed Gust Speed Precip Events Conditions
12:53 AM 39.0 °F 36.8 °F 28.9 °F 67% 30.05 in 10.0 mi NNE 3.5 mph - N/A   Overcast
1:53 AM 37.9 °F 32.7 °F 30.9 °F 76% 30.03 in 10.0 mi East 6.9 mph - N/A   Overcast
2:53 AM 36.0 °F 31.1 °F 32.0 °F 86% 30.01 in 10.0 mi East 5.8 mph - N/A   Overcast
3:53 AM 36.0 °F - 32.0 °F 86% 30.00 in 10.0 mi Calm Calm - N/A   Mostly Cloudy
4:53 AM 36.0 °F - 32.0 °F 86% 30.00 in 10.0 mi Calm Calm - N/A   Overcast
5:53 AM 36.0 °F - 33.1 °F 89% 30.00 in 8.0 mi Calm Calm - 0.00 in Rain Light Rain
6:19 AM 35.6 °F - 33.8 °F 93% 30.02 in 10.0 mi Calm Calm - 0.00 in Rain Light Rain
6:34 AM 35.6 °F - 32.0 °F 87% 30.03 in 10.0 mi Calm Calm - 0.01 in Rain Light Rain
6:53 AM 34.0 °F - 32.0 °F 92% 30.01 in 6.0 mi Calm Calm - 0.02 in Rain Light Rain
7:07 AM 33.8 °F - 32.0 °F 93% 30.04 in 3.0 mi Calm Calm - 0.01 in Snow Light Snow
7:16 AM 33.8 °F - 32.0 °F 93% 30.03 in 2.0 mi Calm Calm - 0.02 in Snow Light Snow
7:26 AM 33.8 °F - 32.0 °F 93% 30.04 in 1.5 mi Calm Calm - 0.03 in Snow Light Snow
7:53 AM 33.1 °F - 32.0 °F 96% 30.03 in 1.5 mi Calm Calm - 0.04 in Snow Light Snow
8:10 AM 33.8 °F - 32.0 °F 93% 30.04 in 2.0 mi Calm Calm - 0.00 in Snow Light Snow
8:28 AM 33.8 °F - 32.0 °F 93% 30.04 in 6.0 mi Calm Calm - 0.00 in   Overcast
8:53 AM 34.0 °F - 33.1 °F 96% 30.04 in 10.0 mi Calm Calm - 0.00 in   Overcast
9:16 AM 35.6 °F - 33.8 °F 93% 30.05 in 10.0 mi Calm Calm - 0.00 in Rain Light Rain
9:24 AM 35.6 °F - 33.8 °F 93% 30.05 in 10.0 mi Calm Calm - 0.00 in Rain Light Rain
9:34 AM 35.6 °F - 33.8 °F 93% 30.05 in 10.0 mi Calm Calm - 0.00 in   Overcast
9:53 AM 37.9 °F - 35.1 °F 89% 30.03 in 10.0 mi Calm Calm - 0.00 in   Overcast
10:53 AM 39.9 °F 37.8 °F 35.1 °F 83% 30.04 in 10.0 mi Variable 3.5 mph - 0.00 in   Overcast
11:21 AM 41.0 °F 38.0 °F 35.6 °F 81% 30.06 in 10.0 mi North 4.6 mph - N/A   Overcast
11:53 AM 41.0 °F 39.0 °F 36.0 °F 82% 30.03 in 10.0 mi Variable 3.5 mph - N/A   Overcast
12:53 PM 46.0 °F 43.9 °F 36.0 °F 68% 29.99 in 10.0 mi Variable 4.6 mph - N/A   Mostly Cloudy
1:53 PM 46.0 °F 42.5 °F 37.9 °F 73% 29.99 in 10.0 mi North 6.9 mph - 0.00 in Rain Light Rain
2:53 PM 48.9 °F - 37.0 °F 64% 29.98 in 10.0 mi NNW 8.1 mph - 0.00 in   Scattered Clouds
3:53 PM 48.9 °F - 35.1 °F 59% 29.96 in 10.0 mi West 8.1 mph - N/A   Scattered Clouds
4:53 PM 48.9 °F - 35.1 °F 59% 29.96 in 10.0 mi West 20.7 mph 26.5 mph 0.00 in Rain Light Rain
5:06 PM 46.4 °F 39.0 °F 35.6 °F 66% 30.00 in 10.0 mi SW 19.6 mph 32.2 mph 0.00 in Rain Light Rain
5:53 PM 48.0 °F - 34.0 °F 58% 29.97 in 10.0 mi West 15.0 mph 21.9 mph 0.00 in   Scattered Clouds
6:53 PM 48.0 °F - 35.1 °F 61% 30.00 in 10.0 mi West 8.1 mph - N/A   Overcast
7:53 PM 46.0 °F 38.0 °F 34.0 °F 63% 30.04 in 10.0 mi NW 21.9 mph 28.8 mph N/A   Overcast
8:53 PM 42.1 °F 39.2 °F 35.1 °F 76% 30.08 in 10.0 mi WSW 4.6 mph - 0.00 in   Scattered Clouds
9:53 PM 41.0 °F 38.0 °F 35.1 °F 79% 30.10 in 10.0 mi Variable 4.6 mph - N/A   Overcast
10:53 PM 41.0 °F 39.0 °F 36.0 °F 82% 30.11 in 10.0 mi West 3.5 mph - 0.00 in Rain Light Rain
11:16 PM 39.2 °F 35.0 °F 37.4 °F 93% 30.14 in 5.0 mi Variable 5.8 mph - 0.02 in Rain Rain
11:44 PM 39.2 °F - 35.6 °F 87% 30.13 in 10.0 mi Calm Calm - 0.02 in   Partly Cloudy
11:53 PM 39.0 °F 35.7 °F 36.0 °F 89% 30.12 in 10.0 mi Variable 4.6 mph - 0.02 in   Partly Cloudy